| time (UTC) | temp C | wind direction | speed KPH | gust KPH | rain 1hr cm | rain 24hr cm | rain mn cm | humidity % | barometer mb |
| 20260509121656 | 12 | 360 | 8.0 | 11.3 | 0.00 | 0.00 | 0.00 | 62 | 1022.3 |
| 20260509120631 | 12 | 265 | 4.8 | 9.7 | 0.00 | 0.00 | 0.00 | 60 | 1021.9 |
| 20260509115632 | 12 | 251 | 4.8 | 9.7 | 0.00 | 0.00 | 0.00 | 60 | 1022.0 |
| 20260509114627 | 12 | 233 | 3.2 | 6.4 | 0.00 | 0.00 | 0.00 | 61 | 1022.0 |
| 20260509113648 | 12 | 258 | 3.2 | 4.8 | 0.00 | 0.00 | 0.00 | 61 | 1021.8 |
| 20260509112625 | 11 | 75 | 1.6 | 3.2 | 0.00 | 0.00 | 0.00 | 64 | 1022.0 |
| 20260509111620 | 12 | 212 | 3.2 | 6.4 | 0.00 | 0.00 | 0.00 | 58 | 1021.8 |
| 20260509110618 | 11 | 201 | 1.6 | 3.2 | 0.00 | 0.00 | 0.00 | 64 | 1021.9 |
| 20260509105633 | 11 | 0.0 | 1.6 | 0.00 | 0.00 | 0.00 | 63 | 1022.0 | |
| 20260509104635 | 12 | 225 | 3.2 | 4.8 | 0.00 | 0.00 | 0.00 | 58 | 1021.8 |
| 20260509103632 | 13 | 155 | 3.2 | 3.2 | 0.00 | 0.00 | 0.00 | 56 | 1021.7 |
| 20260509102629 | 13 | 249 | 6.4 | 9.7 | 0.00 | 0.00 | 0.00 | 56 | 1021.7 |
| 20260509101625 | 13 | 248 | 4.8 | 6.4 | 0.00 | 0.00 | 0.00 | 56 | 1021.7 |
| 20260509100624 | 13 | 259 | 4.8 | 6.4 | 0.00 | 0.00 | 0.00 | 54 | 1021.7 |
| 20260509095624 | 13 | 211 | 6.4 | 9.7 | 0.00 | 0.00 | 0.00 | 54 | 1021.6 |
| 20260509094620 | 13 | 234 | 4.8 | 6.4 | 0.00 | 0.00 | 0.00 | 54 | 1021.4 |
| 20260509093656 | 13 | 310 | 8.0 | 9.7 | 0.00 | 0.00 | 0.00 | 52 | 1021.2 |
| 20260509092639 | 13 | 247 | 8.0 | 12.9 | 0.00 | 0.00 | 0.00 | 52 | 1021.3 |
| 20260509091631 | 13 | 258 | 8.0 | 14.5 | 0.00 | 0.00 | 0.00 | 54 | 1021.2 |
| 20260509090655 | 13 | 271 | 6.4 | 11.3 | 0.00 | 0.00 | 0.00 | 51 | 1021.3 |
| 20260509085628 | 13 | 253 | 12.9 | 17.7 | 0.00 | 0.00 | 0.00 | 50 | 1021.0 |
| 20260509084630 | 13 | 261 | 8.0 | 14.5 | 0.00 | 0.00 | 0.00 | 49 | 1020.9 |
| 20260509083621 | 14 | 248 | 11.3 | 16.1 | 0.00 | 0.00 | 0.00 | 48 | 1021.1 |
| 20260509082624 | 14 | 252 | 8.0 | 11.3 | 0.00 | 0.00 | 0.00 | 48 | 1021.1 |
| 20260509081621 | 14 | 235 | 9.7 | 14.5 | 0.00 | 0.00 | 0.00 | 47 | 1020.9 |
| 20260509080640 | 14 | 243 | 6.4 | 8.0 | 0.00 | 0.00 | 0.00 | 49 | 1020.9 |
| 20260509075634 | 14 | 192 | 6.4 | 12.9 | 0.00 | 0.00 | 0.00 | 49 | 1021.2 |
| 20260509074635 | 14 | 222 | 4.8 | 6.4 | 0.00 | 0.00 | 0.00 | 47 | 1020.9 |
| 20260509073655 | 15 | 216 | 8.0 | 12.9 | 0.00 | 0.00 | 0.00 | 45 | 1020.8 |
| 20260509072648 | 15 | 224 | 8.0 | 14.5 | 0.00 | 0.00 | 0.00 | 44 | 1020.7 |
| 20260509071629 | 15 | 199 | 4.8 | 6.4 | 0.00 | 0.00 | 0.00 | 44 | 1020.6 |
| 20260509070623 | 15 | 224 | 3.2 | 6.4 | 0.00 | 0.00 | 0.00 | 44 | 1020.5 |
| 20260509065643 | 15 | 229 | 8.0 | 9.7 | 0.00 | 0.00 | 0.00 | 43 | 1020.3 |
| 20260509064620 | 16 | 221 | 4.8 | 8.0 | 0.00 | 0.00 | 0.00 | 42 | 1020.4 |
| 20260509063637 | 16 | 239 | 6.4 | 8.0 | 0.00 | 0.00 | 0.00 | 40 | 1020.1 |
| 20260509062655 | 16 | 244 | 4.8 | 6.4 | 0.00 | 0.00 | 0.00 | 39 | 1020.0 |
| 20260509061630 | 16 | 230 | 4.8 | 11.3 | 0.00 | 0.00 | 0.00 | 39 | 1019.8 |
| 20260509060631 | 16 | 274 | 11.3 | 16.1 | 0.00 | 0.00 | 0.00 | 38 | 1019.9 |
| 20260509055632 | 16 | 243 | 9.7 | 17.7 | 0.00 | 0.00 | 0.00 | 39 | 1019.7 |
| 20260509054628 | 16 | 263 | 6.4 | 11.3 | 0.00 | 0.00 | 0.00 | 37 | 1019.9 |
| 20260509053642 | 16 | 283 | 4.8 | 6.4 | 0.00 | 0.00 | 0.00 | 38 | 1019.7 |
| 20260509052623 | 16 | 307 | 8.0 | 11.3 | 0.00 | 0.00 | 0.00 | 36 | 1019.6 |
| 20260509051619 | 17 | 289 | 14.5 | 20.9 | 0.00 | 0.00 | 0.00 | 34 | 1019.4 |
| 20260509050634 | 17 | 298 | 16.1 | 20.9 | 0.00 | 0.00 | 0.00 | 34 | 1019.3 |
| 20260509045633 | 17 | 297 | 12.9 | 17.7 | 0.00 | 0.00 | 0.00 | 33 | 1019.1 |
| 20260509044634 | 17 | 256 | 6.4 | 11.3 | 0.00 | 0.00 | 0.00 | 35 | 1019.2 |
| 20260509043652 | 16 | 225 | 8.0 | 9.7 | 0.00 | 0.00 | 0.00 | 35 | 1019.2 |
| 20260509042626 | 17 | 233 | 4.8 | 6.4 | 0.00 | 0.00 | 0.00 | 33 | 1019.0 |
| 20260509041627 | 17 | 238 | 4.8 | 4.8 | 0.00 | 0.00 | 0.00 | 31 | 1018.9 |
| 20260509040626 | 18 | 268 | 4.8 | 9.7 | 0.00 | 0.00 | 0.00 | 29 | 1018.6 |
| 20260509035620 | 18 | 308 | 16.1 | 17.7 | 0.00 | 0.00 | 0.00 | 27 | 1018.4 |
| 20260509034637 | 19 | 292 | 12.9 | 16.1 | 0.00 | 0.00 | 0.00 | 26 | 1018.2 |
| 20260509033638 | 19 | 287 | 8.0 | 9.7 | 0.00 | 0.00 | 0.00 | 27 | 1018.1 |
| 20260509032656 | 19 | 272 | 6.4 | 12.9 | 0.00 | 0.00 | 0.00 | 26 | 1018.1 |
| 20260509031655 | 18 | 308 | 6.4 | 8.0 | 0.00 | 0.00 | 0.00 | 27 | 1017.6 |
| 20260509030633 | 20 | 293 | 6.4 | 8.0 | 0.00 | 0.00 | 0.00 | 24 | 1017.3 |
| 20260509025631 | 20 | 358 | 11.3 | 19.3 | 0.00 | 0.00 | 0.00 | 22 | 1017.0 |
| 20260509024624 | 21 | 360 | 8.0 | 14.5 | 0.00 | 0.00 | 0.00 | 21 | 1017.2 |
| 20260509023624 | 21 | 332 | 9.7 | 11.3 | 0.00 | 0.00 | 0.00 | 21 | 1017.0 |
| 20260509022622 | 22 | 343 | 11.3 | 17.7 | 0.00 | 0.00 | 0.00 | 20 | 1016.8 |
| 20260509021625 | 23 | 318 | 16.1 | 22.5 | 0.00 | 0.00 | 0.00 | 23 | 1016.7 |
| 20260509020641 | 23 | 304 | 19.3 | 25.7 | 0.00 | 0.00 | 0.00 | 22 | 1016.3 |
| 20260509015637 | 24 | 313 | 14.5 | 20.9 | 0.00 | 0.00 | 0.00 | 21 | 1016.5 |
| 20260509014631 | 24 | 312 | 12.9 | 19.3 | 0.00 | 0.00 | 0.00 | 19 | 1016.3 |
| 20260509013651 | 24 | 241 | 4.8 | 6.4 | 0.00 | 0.00 | 0.00 | 23 | 1016.5 |
| 20260509012631 | 24 | 229 | 9.7 | 19.3 | 0.00 | 0.00 | 0.00 | 25 | 1016.3 |
| 20260509011623 | 24 | 225 | 9.7 | 12.9 | 0.00 | 0.00 | 0.00 | 26 | 1016.3 |
| 20260509010622 | 24 | 214 | 9.7 | 17.7 | 0.00 | 0.00 | 0.00 | 25 | 1016.2 |
| 20260509005620 | 24 | 205 | 12.9 | 24.1 | 0.00 | 0.00 | 0.00 | 25 | 1016.1 |
| 20260509004641 | 24 | 210 | 14.5 | 22.5 | 0.00 | 0.00 | 0.00 | 24 | 1016.2 |
| 20260509003634 | 25 | 204 | 11.3 | 16.1 | 0.00 | 0.00 | 0.00 | 23 | 1016.0 |
| 20260509002638 | 25 | 301 | 19.3 | 24.1 | 0.00 | 0.00 | 0.00 | 16 | 1016.2 |
| 20260509001629 | 25 | 282 | 11.3 | 19.3 | 0.00 | 0.00 | 0.00 | 17 | 1015.9 |
| 20260509000652 | 25 | 260 | 14.5 | 20.9 | 0.00 | 0.00 | 0.00 | 16 | 1016.1 |
| 20260508235625 | 25 | 299 | 17.7 | 25.7 | 0.00 | 0.00 | 0.00 | 15 | 1016.2 |
| 20260508234622 | 25 | 286 | 17.7 | 29.0 | 0.00 | 0.00 | 0.00 | 15 | 1016.1 |
| 20260508233620 | 26 | 322 | 16.1 | 19.3 | 0.00 | 0.00 | 0.00 | 14 | 1015.9 |
| 20260508232621 | 25 | 344 | 19.3 | 25.7 | 0.00 | 0.00 | 0.00 | 16 | 1016.1 |
| 20260508231636 | 23 | 202 | 16.1 | 25.7 | 0.00 | 0.00 | 0.00 | 23 | 1016.0 |
| 20260508230634 | 24 | 196 | 16.1 | 24.1 | 0.00 | 0.00 | 0.00 | 21 | 1015.8 |
| 20260508225631 | 24 | 211 | 19.3 | 25.7 | 0.00 | 0.00 | 0.00 | 21 | 1016.0 |
| 20260508224631 | 24 | 209 | 16.1 | 27.4 | 0.00 | 0.00 | 0.00 | 21 | 1016.1 |
| 20260508223647 | 23 | 210 | 12.9 | 17.7 | 0.00 | 0.00 | 0.00 | 22 | 1016.3 |
| 20260508222648 | 23 | 213 | 19.3 | 29.0 | 0.00 | 0.00 | 0.00 | 21 | 1016.3 |
| 20260508221625 | 23 | 181 | 6.4 | 9.7 | 0.00 | 0.00 | 0.00 | 23 | 1016.1 |
| 20260508220631 | 23 | 209 | 14.5 | 20.9 | 0.00 | 0.00 | 0.00 | 22 | 1016.2 |
| 20260508215619 | 24 | 219 | 16.1 | 24.1 | 0.00 | 0.00 | 0.00 | 23 | 1016.2 |
| 20260508214638 | 24 | 248 | 8.0 | 19.3 | 0.00 | 0.00 | 0.00 | 24 | 1016.2 |
| 20260508213654 | 24 | 224 | 11.3 | 25.7 | 0.00 | 0.00 | 0.00 | 25 | 1016.4 |
| 20260508212711 | 23 | 214 | 16.1 | 27.4 | 0.00 | 0.00 | 0.00 | 23 | 1016.4 |
| 20260508211628 | 23 | 218 | 17.7 | 29.0 | 0.00 | 0.00 | 0.00 | 24 | 1016.4 |
| 20260508210629 | 23 | 215 | 22.5 | 33.8 | 0.00 | 0.00 | 0.00 | 24 | 1016.3 |
| 20260508205625 | 23 | 212 | 17.7 | 27.4 | 0.00 | 0.00 | 0.00 | 25 | 1016.3 |
| 20260508204621 | 23 | 215 | 11.3 | 22.5 | 0.00 | 0.00 | 0.00 | 26 | 1016.3 |
| 20260508203622 | 22 | 228 | 9.7 | 16.1 | 0.00 | 0.00 | 0.00 | 28 | 1016.4 |
| 20260508202623 | 22 | 214 | 17.7 | 24.1 | 0.00 | 0.00 | 0.00 | 27 | 1016.3 |
| 20260508201640 | 22 | 223 | 16.1 | 24.1 | 0.00 | 0.00 | 0.00 | 28 | 1016.4 |
| 20260508200634 | 22 | 229 | 12.9 | 20.9 | 0.00 | 0.00 | 0.00 | 28 | 1016.6 |
| 20260508195631 | 21 | 221 | 16.1 | 24.1 | 0.00 | 0.00 | 0.00 | 26 | 1016.5 |
| 20260508194629 | 21 | 217 | 11.3 | 20.9 | 0.00 | 0.00 | 0.00 | 27 | 1016.5 |
| 20260508193650 | 21 | 229 | 12.9 | 17.7 | 0.00 | 0.00 | 0.00 | 28 | 1016.3 |
| 20260508192644 | 21 | 211 | 11.3 | 16.1 | 0.00 | 0.00 | 0.00 | 28 | 1016.3 |
| 20260508191624 | 21 | 208 | 11.3 | 16.1 | 0.00 | 0.00 | 0.00 | 28 | 1016.5 |
| 20260508190622 | 22 | 266 | 11.3 | 17.7 | 0.00 | 0.00 | 0.00 | 28 | 1016.5 |
| 20260508185619 | 21 | 207 | 11.3 | 22.5 | 0.00 | 0.00 | 0.00 | 28 | 1016.6 |
| 20260508184655 | 21 | 196 | 16.1 | 17.7 | 0.00 | 0.00 | 0.00 | 29 | 1016.8 |
| 20260508183634 | 21 | 215 | 14.5 | 19.3 | 0.00 | 0.00 | 0.00 | 29 | 1016.7 |
| 20260508182635 | 20 | 203 | 11.3 | 14.5 | 0.00 | 0.00 | 0.00 | 31 | 1016.9 |
| 20260508181627 | 20 | 208 | 16.1 | 22.5 | 0.00 | 0.00 | 0.00 | 31 | 1016.9 |
| 20260508180627 | 20 | 225 | 8.0 | 12.9 | 0.00 | 0.00 | 0.00 | 34 | 1016.9 |
| 20260508175630 | 19 | 210 | 12.9 | 24.1 | 0.00 | 0.00 | 0.00 | 39 | 1016.9 |
| 20260508174643 | 19 | 217 | 14.5 | 19.3 | 0.00 | 0.00 | 0.00 | 37 | 1016.9 |
| 20260508173622 | 18 | 202 | 16.1 | 19.3 | 0.00 | 0.00 | 0.00 | 43 | 1016.9 |
| 20260508172623 | 17 | 202 | 11.3 | 17.7 | 0.00 | 0.00 | 0.00 | 46 | 1016.9 |
| 20260508171658 | 17 | 200 | 9.7 | 11.3 | 0.00 | 0.00 | 0.00 | 49 | 1016.9 |
| 20260508170633 | 17 | 200 | 11.3 | 14.5 | 0.00 | 0.00 | 0.00 | 48 | 1016.8 |
| 20260508165632 | 17 | 221 | 9.7 | 12.9 | 0.00 | 0.00 | 0.00 | 45 | 1016.7 |
| 20260508164632 | 17 | 207 | 9.7 | 17.7 | 0.00 | 0.00 | 0.00 | 46 | 1016.7 |
| 20260508163629 | 17 | 219 | 12.9 | 16.1 | 0.00 | 0.00 | 0.00 | 42 | 1016.7 |
| 20260508162628 | 17 | 198 | 9.7 | 19.3 | 0.00 | 0.00 | 0.00 | 45 | 1016.6 |
| 20260508161621 | 16 | 216 | 20.9 | 32.2 | 0.00 | 0.00 | 0.00 | 49 | 1016.7 |
| 20260508160618 | 16 | 208 | 11.3 | 24.1 | 0.00 | 0.00 | 0.00 | 50 | 1016.5 |
| 20260508155643 | 15 | 208 | 19.3 | 24.1 | 0.00 | 0.00 | 0.00 | 49 | 1016.6 |
| 20260508154634 | 15 | 210 | 11.3 | 25.7 | 0.00 | 0.00 | 0.00 | 49 | 1016.5 |
| 20260508153654 | 15 | 218 | 16.1 | 20.9 | 0.00 | 0.00 | 0.00 | 50 | 1016.5 |
| 20260508152631 | 15 | 218 | 14.5 | 22.5 | 0.00 | 0.00 | 0.00 | 50 | 1016.3 |
| 20260508151629 | 15 | 206 | 11.3 | 19.3 | 0.00 | 0.00 | 0.00 | 50 | 1016.5 |
| 20260508150627 | 14 | 214 | 16.1 | 24.1 | 0.00 | 0.00 | 0.00 | 51 | 1016.1 |
| 20260508145626 | 14 | 219 | 14.5 | 17.7 | 0.00 | 0.00 | 0.00 | 51 | 1016.0 |
| 20260508144623 | 13 | 213 | 12.9 | 22.5 | 0.00 | 0.00 | 0.00 | 52 | 1016.2 |
| 20260508143622 | 13 | 211 | 16.1 | 20.9 | 0.00 | 0.00 | 0.00 | 51 | 1016.1 |
| 20260508142637 | 13 | 219 | 11.3 | 17.7 | 0.00 | 0.00 | 0.00 | 51 | 1016.1 |
| 20260508141640 | 14 | 195 | 11.3 | 17.7 | 0.00 | 0.00 | 0.00 | 48 | 1016.1 |
| 20260508140635 | 13 | 203 | 17.7 | 30.6 | 0.00 | 0.00 | 0.00 | 52 | 1015.8 |
| 20260508135636 | 13 | 205 | 22.5 | 29.0 | 0.00 | 0.00 | 0.00 | 51 | 1015.6 |
| 20260508134632 | 13 | 204 | 9.7 | 17.7 | 0.00 | 0.00 | 0.00 | 51 | 1015.5 |
| 20260508133628 | 13 | 206 | 14.5 | 22.5 | 0.00 | 0.00 | 0.00 | 51 | 1015.6 |
| 20260508132625 | 13 | 220 | 19.3 | 24.1 | 0.00 | 0.00 | 0.00 | 50 | 1015.2 |
| 20260508131643 | 13 | 226 | 14.5 | 24.1 | 0.00 | 0.00 | 0.00 | 49 | 1015.3 |
| 20260508130619 | 13 | 208 | 17.7 | 30.6 | 0.00 | 0.00 | 0.00 | 47 | 1015.1 |
| 20260508125637 | 13 | 214 | 20.9 | 30.6 | 0.00 | 0.00 | 0.00 | 48 | 1015.2 |
| 20260508124637 | 12 | 212 | 12.9 | 20.9 | 0.00 | 0.00 | 0.00 | 48 | 1015.2 |
| 20260508123634 | 13 | 220 | 20.9 | 27.4 | 0.00 | 0.00 | 0.00 | 48 | 1014.9 |
| 20260508122634 | 13 | 212 | 22.5 | 29.0 | 0.00 | 0.00 | 0.00 | 48 | 1015.0 |